CAPE
0 0 0 0 0 0 0 0 0 0 0 0 0 0 0 0 0 0 0 0 0 0
0 0 0 0 0 0 0 0 0 0 0 0 0 0 0 0 0 0 0 0 0 0
0 0 0 0 0 0 0 0 0 0 0 0 0 0 0 0 0 0 0 0 0 0
0 0 0 0 0 0 0 0 0 0 0 0 0 0 0 0 0 0 0 0 0 0
0 0 0 0 0 0 0 0 0 0 0 0 0 0 0 0 0 0 0 0 0 0
0 0 0 0 0 0 0 0 0 0 0 0 0 0 0 0 0 0 0 0 0 0
0 0 0 0 0 0 0 0 0 0 0 0 0 0 0 0 0 0 0 0 0 0
0 0 0 0 0 0 0 0 0 0 0 0 0 0 0 0 0 0 0 0 0 0
0 0 0 0 0 0 0 0 0 0 0 0 0 0 0 0 0 0 0 0 0 0
0 0 0 0 0 0 0 0 0 0 0 0 0 0 0 0 0 0 0 0 0 0
0 0 0 0 0 0 0 0 0 0 0 0 0 0 0 0 0 0 0 0 0 0
0 0 0 0 0 0 0 0 0 0 0 0 0 0 0 0 0 0 0 0 0 0
0 0 0 0 0 0 0 0 0 0 0 0 0 0 0 0 0 0 0 0 0 0
0 0 0 0 0 0 0 0 0 0 0 0 0 0 0 0 0 0 0 0 0 0
CIN
-0 -0 -0 -0 -0 -0 -0 -0 -0 -0 -0 -0 -0 -0 -0 -0 -0 -0 -0 -0 -0 -0
-0 -0 -0 -0 -0 -0 -0 -0 -0 -0 -0 -0 -0 -0 -0 -0 -0 -0 -0 -0 -0 -0
-0 -0 -0 -0 -0 -0 -0 -0 -0 -0 -0 -0 -0 -0 -0 -0 -0 -0 -0 -0 -0 -0
-0 -0 -0 -0 -0 -0 -0 -0 -0 -0 -0 -0 -0 -0 -0 -0 -0 -0 -0 -0 -0 -0
-0 -0 -0 -0 -0 -0 -0 -0 -0 -0 -0 -0 -0 -0 -0 -0 -0 -0 -0 -0 -0 -0
-0 -0 -0 -0 -0 -0 -0 -0 -0 -0 -0 -0 -0 -0 -0 -0 -0 -0 -0 -0 -0 -0
-0 -0 -0 -0 -0 -0 -0 -0 -0 -0 -0 -0 -0 -0 -0 -0 -0 -0 -0 -0 -0 -0
-0 -0 -0 -0 -0 -0 -0 -0 -0 -0 -0 -0 -0 -0 -0 -0 -0 -0 -0 -0 -0 -0
-0 -0 -0 -0 -0 -0 -0 -0 -0 -0 -0 -0 -0 -0 -0 -0 -0 -0 -0 -0 -0 -0
-0 -0 -0 -0 -0 -0 -0 -0 -0 -0 -0 -0 -0 -0 -0 -0 -0 -0 -0 -0 -0 -0
-0 -0 -0 -0 -0 -0 -0 -0 -0 -0 -0 -0 -0 -0 -0 -0 -0 -0 -0 -0 -0 -0
-0 -0 -0 -0 -0 -0 -0 -0 -0 -0 -0 -0 -0 -0 -0 -0 -0 -0 -0 -0 -0 -0
-0 -0 -0 -0 -0 -0 -0 -0 -0 -0 -0 -0 -0 -0 -0 -0 -0 -0 -0 -0 -0 -0
-0 -0 -0 -0 -0 -0 -0 -0 -0 -0 -0 -0 -0 -0 -0 -0 -0 -0 -0 -0 -0 -0
Wind_Speed
15 12 9 8 6 4 2 1 3 4 6 9 11 13 15 19 21 21 21 21 20 21
15 14 10 8 8 5 2 2 2 3 5 7 9 12 14 17 20 20 20 20 20 20
17 15 11 9 8 6 2 1 1 2 4 6 8 11 14 17 18 20 20 20 19 20
16 14 11 10 8 7 5 3 1 1 4 5 7 10 13 15 17 19 20 19 19 19
14 13 12 10 8 7 7 4 2 2 3 5 6 8 11 14 15 17 19 18 18 18
13 14 12 10 9 8 7 6 3 2 3 5 5 7 10 12 14 16 17 17 17 17
13 12 11 11 10 8 8 6 5 4 4 5 6 7 9 12 14 16 16 17 16 16
9 10 10 10 10 8 7 6 5 5 5 6 7 8 9 11 13 15 15 15 15 15
8 9 9 9 8 7 7 6 5 5 6 6 8 6 8 10 13 14 14 15 15 16
8 8 8 8 7 7 6 5 5 5 6 7 8 6 8 10 13 14 14 14 14 16
8 8 8 8 8 7 6 5 4 4 5 6 7 6 8 10 12 13 13 13 12 13
8 8 8 8 8 7 6 5 4 4 5 5 6 6 9 11 12 13 14 14 12 13
8 8 9 9 8 7 6 5 5 5 5 4 5 5 8 10 11 12 13 14 14 14
9 9 9 8 8 7 6 5 5 5 5 4 4 5 6 8 10 11 11 12 13 14
Wind_Direction
177 175 175 173 165 154 142 42 93 67 45 26 18 15 13 7 3 0 358 0 3 1
183 183 184 179 175 172 144 85 81 67 38 27 16 14 11 5 2 3 2 3 5 3
189 190 191 189 190 191 199 137 69 36 25 20 12 9 6 3 2 2 0 2 5 5
196 197 200 202 201 199 199 192 203 4 360 6 6 3 2 2 2 359 359 0 3 4
208 208 213 218 229 219 216 234 244 296 332 347 358 1 2 360 1 358 356 359 3 3
214 214 224 228 230 230 225 243 261 256 299 324 345 353 359 0 359 356 357 0 1 3
220 222 230 227 244 239 219 237 251 266 296 318 332 347 352 356 356 356 357 360 2 4
232 231 234 236 242 236 237 251 256 273 296 311 322 335 345 352 354 355 358 360 360 1
247 245 244 245 240 241 253 257 257 268 283 301 322 336 344 349 350 354 357 356 359 3
248 243 242 241 243 247 251 257 261 282 293 308 327 340 346 349 349 352 355 358 359 3
254 250 242 240 246 253 252 245 256 277 290 302 319 335 343 345 347 352 353 354 359 1
255 249 241 238 239 244 247 251 263 274 285 297 316 331 341 345 348 351 349 352 359 1
251 245 237 237 235 241 249 252 273 281 282 289 310 329 340 345 350 350 352 356 359 1
263 252 250 246 246 238 244 256 268 274 278 285 303 324 335 343 346 347 349 351 355 358